Location: The Rolnick Observatory
(41.1711°N, 73.3275°W)
Time: 15:21:07
(UTC-05:00)

Tiangong 2 - Visible Passes

Search period start: 20 February 2019 00:00
Search period end: 02 March 2019 00:00
Orbit: 381 x 390 km, 42.8° (Epoch: 20 February)

Date Brightness Start Highest point End Pass type
(mag) Time Alt. Az. Time Alt. Az. Time Alt. Az.
20 Feb 4.0 19:27:53 10° WSW 19:29:07 12° SW 19:29:56 11° SSW visible
21 Feb 3.5 18:27:40 10° W 18:30:05 20° SSW 18:32:30 10° SSE visible
23 Feb 4.2 18:06:54 10° WSW 18:08:06 12° SW 18:09:18 10° SSW visible
